Change the Weather History Date:

Tuesday, October 30, 2012

  Actual Average (KEMV) Record (KEMV)
Temperature  
Mean Temperature 44 °F -  
Max Temperature 48 °F 68 °F 85 °F (1984)
Min Temperature 41 °F 39 °F 24 °F (1990)
Degree Days  
Heating Degree Days 20    
Moisture  
Dew Point 37 °F    
Average Humidity 75    
Maximum Humidity 93    
Minimum Humidity 62    
Precipitation  
Precipitation 0.01 in - - ()
Sea Level Pressure  
Sea Level Pressure 29.37 in    
Wind  
Wind Speed 17 mph (SW)    
Max Wind Speed 24 mph    
Max Gust Speed 34 mph    
Visibility 10 miles    
Events Rain    
Averages and records for this station are not official NWS values.
T = Trace of Precipitation, MM = Missing Value Source: NWS Daily Summary

Daily Weather History Graph

Daily Weather History Graph

Search for Another Location

Airport or City:

Trip Planner

Search our weather history database for the weather conditions in past years. The results will help you decide how hot, cold, wet, or windy it might be!

Date:

Astronomy

Oct. 30, 2012 Rise Set
Actual Time 7:32 AM EDT 6:15 PM EDT
Civil Twilight 7:05 AM EDT 6:42 PM EDT
Nautical Twilight 6:35 AM EDT 7:12 PM EDT
Astronomical Twilight 6:05 AM EDT 7:42 PM EDT
Moon 6:46 PM EDT (10/30) 8:14 AM EDT (10/30)
Length of Visible Light 11h 36m
Length of Day
10h 43m
Full, 99% of the Moon is Illuminated
Oct 30
Full
Nov 6
Last Quarter
Nov 13
New
Nov 20
First Quarter
Nov 28
Full

Hourly Weather History & Observations

Time (EDT) Temp. Windchill Dew Point Humidity Pressure Visibility Wind Dir Wind Speed Gust Speed Precip Events Conditions
12:15 AM 41.0 °F 31.6 °F 39.2 °F 93% 29.19 in 10.0 mi WSW 20.7 mph 32.2 mph N/A   Drizzle
12:35 AM 41.0 °F 31.4 °F 39.2 °F 93% 29.20 in 10.0 mi WSW 21.9 mph 28.8 mph N/A   Drizzle
12:55 AM 41.0 °F 32.2 °F 39.2 °F 93% 29.20 in 10.0 mi WSW 18.4 mph 29.9 mph N/A   Light Drizzle
1:15 AM 41.0 °F 31.4 °F 39.2 °F 93% 29.20 in 10.0 mi WSW 21.9 mph 34.5 mph N/A   Drizzle
1:35 AM 41.0 °F 31.4 °F 39.2 °F 93% 29.20 in 10.0 mi SW 21.9 mph 27.6 mph N/A   Drizzle
1:55 AM 41.0 °F 31.9 °F 39.2 °F 93% 29.20 in 10.0 mi WSW 19.6 mph 28.8 mph N/A   Drizzle
2:15 AM 41.0 °F 31.9 °F 39.2 °F 93% 29.20 in 10.0 mi SW 19.6 mph 26.5 mph N/A   Light Drizzle
2:35 AM 41.0 °F 32.2 °F 39.2 °F 93% 29.20 in 10.0 mi WSW 18.4 mph 27.6 mph N/A   Light Drizzle
2:55 AM 41.0 °F 31.1 °F 39.2 °F 93% 29.21 in 10.0 mi SW 23.0 mph 29.9 mph N/A   Light Drizzle
3:15 AM 41.0 °F 31.4 °F 39.2 °F 93% 29.21 in 10.0 mi SW 21.9 mph 28.8 mph N/A   Light Drizzle
3:35 AM 41.0 °F 31.9 °F 39.2 °F 93% 29.21 in 10.0 mi SW 19.6 mph 28.8 mph N/A   Light Drizzle
3:55 AM 41.0 °F 31.9 °F 39.2 °F 93% 29.21 in 10.0 mi SW 19.6 mph 24.2 mph N/A   Light Drizzle
4:35 AM 42.8 °F 34.5 °F 39.2 °F 87% 29.22 in 10.0 mi SW 18.4 mph 24.2 mph N/A   Overcast
4:55 AM 42.8 °F 35.8 °F 37.4 °F 81% 29.23 in 10.0 mi SW 13.8 mph 21.9 mph N/A   Overcast
5:15 AM 42.8 °F 35.8 °F 37.4 °F 81% 29.23 in 10.0 mi SW 13.8 mph 21.9 mph N/A   Overcast
5:35 AM 42.8 °F 35.8 °F 37.4 °F 81% 29.24 in 10.0 mi SW 13.8 mph - N/A   Overcast
5:55 AM 42.8 °F 36.6 °F 37.4 °F 81% 29.25 in 10.0 mi SW 11.5 mph - N/A   Overcast
6:15 AM 42.8 °F 35.8 °F 37.4 °F 81% 29.26 in 10.0 mi SW 13.8 mph - N/A   Overcast
6:35 AM 42.8 °F 36.2 °F 37.4 °F 81% 29.27 in 10.0 mi SW 12.7 mph - N/A   Overcast
6:55 AM 42.8 °F 36.2 °F 35.6 °F 76% 29.28 in 10.0 mi SW 12.7 mph - N/A   Overcast
7:15 AM 42.8 °F 35.1 °F 33.8 °F 70% 29.29 in 10.0 mi WSW 16.1 mph 26.5 mph N/A   Overcast
7:35 AM 42.8 °F 34.8 °F 33.8 °F 70% 29.30 in 10.0 mi SW 17.3 mph 21.9 mph N/A   Mostly Cloudy
7:55 AM 42.8 °F 35.1 °F 33.8 °F 70% 29.31 in 10.0 mi WSW 16.1 mph 20.7 mph N/A   Mostly Cloudy
8:15 AM 42.8 °F 36.2 °F 35.6 °F 76% 29.32 in 10.0 mi SW 12.7 mph 21.9 mph N/A   Overcast
8:35 AM 42.8 °F 33.3 °F 33.8 °F 70% 29.34 in 10.0 mi WSW 24.2 mph 29.9 mph N/A   Overcast
8:55 AM 42.8 °F 34.3 °F 35.6 °F 76% 29.35 in 10.0 mi SW 19.6 mph 25.3 mph N/A   Overcast
9:35 AM 44.6 °F 36.9 °F 35.6 °F 71% 29.37 in 10.0 mi WSW 18.4 mph 33.4 mph N/A   Overcast
9:55 AM 44.6 °F 37.4 °F 35.6 °F 71% 29.37 in 10.0 mi WSW 16.1 mph 23.0 mph N/A   Overcast
10:15 AM 44.6 °F 37.8 °F 35.6 °F 71% 29.38 in 10.0 mi WSW 15.0 mph 20.7 mph N/A   Overcast
10:35 AM 44.6 °F 37.2 °F 35.6 °F 71% 29.39 in 10.0 mi WSW 17.3 mph 23.0 mph N/A   Light Drizzle
10:55 AM 44.6 °F 36.9 °F 35.6 °F 71% 29.40 in 10.0 mi SW 18.4 mph 28.8 mph N/A   Overcast
11:35 AM 44.6 °F 37.8 °F 35.6 °F 71% 29.41 in 10.0 mi WSW 15.0 mph 23.0 mph N/A   Light Drizzle
11:55 AM 44.6 °F 36.6 °F 35.6 °F 71% 29.42 in 10.0 mi SW 19.6 mph 29.9 mph N/A Rain Light Rain
12:15 PM 44.6 °F 35.7 °F 35.6 °F 71% 29.42 in 10.0 mi WSW 24.2 mph 29.9 mph N/A   Light Drizzle
12:55 PM 44.6 °F 36.4 °F 35.6 °F 71% 29.41 in 10.0 mi SW 20.7 mph 25.3 mph N/A   Overcast
1:15 PM 46.4 °F 39.5 °F 35.6 °F 66% 29.41 in 10.0 mi SW 17.3 mph 27.6 mph N/A   Overcast
1:35 PM 46.4 °F 39.8 °F 35.6 °F 66% 29.41 in 10.0 mi SW 16.1 mph 24.2 mph N/A   Overcast
1:55 PM 48.2 °F - 35.6 °F 62% 29.41 in 10.0 mi SW 16.1 mph 25.3 mph N/A   Overcast
2:15 PM 48.2 °F - 35.6 °F 62% 29.40 in 10.0 mi SW 18.4 mph - N/A   Overcast
2:35 PM 46.4 °F 39.8 °F 37.4 °F 71% 29.42 in 10.0 mi West 16.1 mph 25.3 mph N/A Rain Light Rain
2:55 PM 44.6 °F 38.8 °F 37.4 °F 76% 29.42 in 10.0 mi SW 11.5 mph - 0.01 in Rain Light Rain
3:35 PM 46.4 °F 41.5 °F 39.2 °F 76% 29.42 in 10.0 mi SSW 10.4 mph - N/A   Overcast
3:55 PM 46.4 °F 41.1 °F 37.4 °F 71% 29.43 in 10.0 mi SW 11.5 mph 20.7 mph N/A   Overcast
4:15 PM 46.4 °F 41.5 °F 35.6 °F 66% 29.43 in 10.0 mi SW 10.4 mph - N/A   Overcast
4:35 PM 48.2 °F - 35.6 °F 62% 29.44 in 10.0 mi SW 10.4 mph - N/A   Overcast
4:55 PM 48.2 °F - 37.4 °F 66% 29.44 in 10.0 mi SW 8.1 mph - N/A   Overcast
5:15 PM 46.4 °F 41.9 °F 35.6 °F 66% 29.45 in 10.0 mi SSW 9.2 mph - N/A   Overcast
5:35 PM 46.4 °F 42.4 °F 37.4 °F 71% 29.45 in 10.0 mi SSW 8.1 mph - N/A   Overcast
5:55 PM 46.4 °F 44.3 °F 37.4 °F 71% 29.46 in 10.0 mi SSW 4.6 mph - N/A   Overcast
6:15 PM 46.4 °F 43.5 °F 37.4 °F 71% 29.47 in 10.0 mi SSW 5.8 mph - N/A   Overcast
6:35 PM 44.6 °F 42.2 °F 37.4 °F 76% 29.48 in 10.0 mi SSW 4.6 mph - N/A   Overcast
7:15 PM 46.4 °F 42.9 °F 37.4 °F 71% 29.50 in 10.0 mi SW 6.9 mph - N/A   Overcast
7:35 PM 44.6 °F 42.2 °F 37.4 °F 76% 29.51 in 10.0 mi SW 4.6 mph - N/A   Overcast
8:15 PM 44.6 °F 41.4 °F 37.4 °F 76% 29.52 in 10.0 mi SW 5.8 mph - N/A   Overcast
8:35 PM 46.4 °F 40.4 °F 35.6 °F 66% 29.53 in 10.0 mi WSW 13.8 mph 18.4 mph N/A   Overcast
8:55 PM 46.4 °F 41.1 °F 33.8 °F 62% 29.54 in 10.0 mi WSW 11.5 mph - N/A   Overcast
9:15 PM 46.4 °F 41.5 °F 33.8 °F 62% 29.55 in 10.0 mi WSW 10.4 mph - N/A   Overcast
9:35 PM 46.4 °F 41.9 °F 33.8 °F 62% 29.55 in 10.0 mi WSW 9.2 mph 16.1 mph N/A   Overcast
9:55 PM 46.4 °F 42.4 °F 33.8 °F 62% 29.56 in 10.0 mi WSW 8.1 mph - N/A   Overcast
10:15 PM 46.4 °F 42.4 °F 33.8 °F 62% 29.56 in 10.0 mi WSW 8.1 mph - N/A   Scattered Clouds
10:35 PM 44.6 °F 39.2 °F 33.8 °F 66% 29.56 in 10.0 mi SW 10.4 mph - N/A   Scattered Clouds
11:15 PM 42.8 °F 38.6 °F 35.6 °F 76% 29.56 in 10.0 mi SW 6.9 mph - N/A   Scattered Clouds
11:35 PM 42.8 °F 38.6 °F 35.6 °F 76% 29.56 in 10.0 mi SW 6.9 mph - N/A   Mostly Cloudy
11:55 PM 42.8 °F 38.0 °F 35.6 °F 76% 29.56 in 10.0 mi SW 8.1 mph - N/A   Overcast